Location: Unspecified
(0.0000°N, 0.0000°E)
Time: 07:15:37
(UTC+00:00)

Tiangong 2 - Pass Details

Date: 20 May 2017
Orbit: 391 x 396 km, 42.8° (Epoch: 28 June)

Event Time Altitude Azimuth Distance (km) Brightness Sun altitude
Rises 18:27:21 0° 224° (SW) 2,277 5.3 -7.2°
Reaches altitude 10° 18:29:26 10° 223° (SW) 1,419 4.2 -7.7°
Maximum altitude 18:32:38 83° 136° (SE) 394 1.0 -8.5°
Drops below altitude 10° 18:35:49 10° 47° (NE) 1,410 3.7 -9.2°
Sets 18:37:52 0° 46° (NE) 2,262 4.7 -9.7°
